Location: Eyeline Observatory
(43.2182°N, 78.8632°W)
Time: 22:09:29
(UTC-05:00)

Vanguard 1 Rocket - Visible Passes

Search period start: 18 January 2018 00:00
Search period end: 28 January 2018 00:00
Orbit: 656 x 4222 km, 34.3° (Epoch: 17 January)

Date Brightness Start Highest point End Pass type
(mag) Time Alt. Az. Time Alt. Az. Time Alt. Az.
18 Jan 10.5 06:17:57 10° SSW 06:27:37 23° SSE 06:33:51 10° ESE visible
19 Jan 10.9 05:06:24 10° S 05:15:46 19° SSE 05:22:20 10° ESE visible
20 Jan 11.3 03:56:48 10° S 04:03:32 13° SSE 04:08:58 10° SE visible
20 Jan 10.2 06:19:08 10° SW 06:30:49 30° SSE 06:37:46 10° ESE visible
21 Jan 10.6 05:06:34 10° SSW 05:18:55 25° SSE 05:26:45 10° ESE visible
22 Jan 11.1 03:55:04 10° S 04:06:37 19° SSE 04:14:45 10° ESE visible
22 Jan 10.0 06:20:43 10° SW 06:33:58 37° SSE 06:41:25 10° ESE visible
23 Jan 11.4 02:46:13 10° SSE 02:53:59 13° SE 03:00:24 10° ESE visible
23 Jan 10.4 05:07:23 10° SSW 05:22:01 32° SSE 05:30:42 10° E visible
24 Jan 10.8 03:54:50 10° SSW 04:09:38 26° SSE 04:19:16 10° ESE visible
24 Jan 9.8 06:22:34 10° SW 06:37:06 43° S 06:44:56 10° E visible
25 Jan 11.2 02:46:45 13° S 02:56:55 19° SE 03:06:32 10° ESE visible
25 Jan 10.2 05:08:39 10° SW 05:25:05 39° SSE 05:34:21 10° E visible
26 Jan 11.5 01:41:27 12° SSE 01:43:59 12° SE 01:50:24 10° ESE visible
26 Jan 10.6 03:58:54 15° SSW 04:12:36 33° SSE 04:23:14 10° E visible
26 Jan 9.7 06:24:38 10° WSW 06:40:11 49° S 06:48:21 10° E visible
27 Jan 11.0 02:53:05 22° S 02:59:45 26° SSE 03:11:12 10° E visible
27 Jan 10.0 05:10:29 10° SW 05:28:06 45° SSE 05:37:51 10° E visible
